Stündliche Wetter Abydos

Heute, 25 Juni, Freitag

Zeit Temperatur Niederschläge Wind Luftdruck Luftfeuchtigkeit
00:00 +34°C° 0 mm 5 m/S 749 mmHg 23%
01:00 +33°C° 0 mm 5 m/S 748 mmHg 25%
02:00 +32°C° 0 mm 4 m/S 748 mmHg 26%
03:00 +32°C° 0 mm 4 m/S 748 mmHg 28%
04:00 +30°C° 0 mm 4 m/S 748 mmHg 30%
05:00 +30°C° 0 mm 4 m/S 748 mmHg 32%
06:00 +32°C° 0 mm 5 m/S 749 mmHg 30%
07:00 +33°C° 0 mm 6 m/S 749 mmHg 29%
08:00 +35°C° 0 mm 6 m/S 749 mmHg 27%
09:00 +38°C° 0 mm 7 m/S 749 mmHg 23%
10:00 +39°C° 0 mm 7 m/S 749 mmHg 18%
11:00 +41°C° 0 mm 7 m/S 748 mmHg 13%
12:00 +43°C° 0 mm 8 m/S 748 mmHg 12%
13:00 +44°C° 0 mm 8 m/S 747 mmHg 11%
14:00 +45°C° 0 mm 8 m/S 747 mmHg 10%
15:00 +44°C° 0 mm 8 m/S 747 mmHg 11%
16:00 +44°C° 0 mm 8 m/S 746 mmHg 11%
17:00 +44°C° 0 mm 8 m/S 746 mmHg 11%
18:00 +41°C° 0 mm 6 m/S 746 mmHg 13%
19:00 +40°C° 0 mm 5 m/S 747 mmHg 15%
20:00 +37°C° 0 mm 4 m/S 747 mmHg 17%
21:00 +36°C° 0 mm 3 m/S 747 mmHg 19%
22:00 +35°C° 0 mm 3 m/S 747 mmHg 20%
23:00 +35°C° 0 mm 3 m/S 747 mmHg 22%

Morgen, 26 Juni, Samstag

Zeit Temperatur Niederschläge Wind Luftdruck Luftfeuchtigkeit
00:00 +34°C° 0 mm 3 m/S 747 mmHg 22%
01:00 +34°C° 0 mm 3 m/S 747 mmHg 23%
02:00 +33°C° 0 mm 4 m/S 747 mmHg 24%
03:00 +31°C° 0 mm 3 m/S 747 mmHg 26%
04:00 +31°C° 0 mm 3 m/S 747 mmHg 28%
05:00 +30°C° 0 mm 3 m/S 747 mmHg 30%
06:00 +33°C° 0 mm 4 m/S 747 mmHg 29%
07:00 +34°C° 0 mm 4 m/S 747 mmHg 28%
08:00 +36°C° 0 mm 5 m/S 747 mmHg 27%
09:00 +37°C° 0 mm 5 m/S 747 mmHg 24%
10:00 +40°C° 0 mm 6 m/S 747 mmHg 21%
11:00 +41°C° 0 mm 6 m/S 747 mmHg 18%
12:00 +43°C° 0 mm 7 m/S 746 mmHg 16%
13:00 +44°C° 0 mm 7 m/S 746 mmHg 15%
14:00 +44°C° 0 mm 7 m/S 745 mmHg 13%
15:00 +44°C° 0 mm 7 m/S 745 mmHg 13%
16:00 +44°C° 0 mm 7 m/S 745 mmHg 14%
17:00 +43°C° 0 mm 7 m/S 744 mmHg 14%
18:00 +41°C° 0 mm 6 m/S 745 mmHg 14%
19:00 +39°C° 0 mm 5 m/S 745 mmHg 15%
20:00 +37°C° 0 mm 4 m/S 745 mmHg 15%
21:00 +36°C° 0 mm 3 m/S 745 mmHg 17%
22:00 +35°C° 0 mm 3 m/S 745 mmHg 18%
23:00 +34°C° 0 mm 3 m/S 745 mmHg 19%

übermorgen, 27 Juni, Sonntag

Zeit Temperatur Niederschläge Wind Luftdruck Luftfeuchtigkeit
00:00 +34°C° 0 mm 3 m/S 745 mmHg 20%
01:00 +33°C° 0 mm 3 m/S 745 mmHg 21%
02:00 +33°C° 0 mm 3 m/S 745 mmHg 22%
03:00 +31°C° 0 mm 3 m/S 745 mmHg 23%
04:00 +31°C° 0 mm 3 m/S 746 mmHg 24%
05:00 +30°C° 0 mm 3 m/S 746 mmHg 26%
06:00 +33°C° 0 mm 3 m/S 746 mmHg 23%
07:00 +34°C° 0 mm 3 m/S 746 mmHg 21%
08:00 +36°C° 0 mm 3 m/S 746 mmHg 19%
09:00 +37°C° 0 mm 3 m/S 746 mmHg 17%
10:00 +39°C° 0 mm 3 m/S 746 mmHg 15%
11:00 +41°C° 0 mm 2 m/S 746 mmHg 12%
12:00 +43°C° 0 mm 3 m/S 745 mmHg 12%
13:00 +44°C° 0 mm 3 m/S 745 mmHg 11%
14:00 +45°C° 0 mm 4 m/S 744 mmHg 10%
15:00 +45°C° 0 mm 4 m/S 744 mmHg 10%
16:00 +46°C° 0 mm 5 m/S 744 mmHg 10%
17:00 +46°C° 0 mm 5 m/S 744 mmHg 10%
18:00 +43°C° 0 mm 5 m/S 745 mmHg 11%
19:00 +42°C° 0 mm 4 m/S 745 mmHg 12%
20:00 +40°C° 0 mm 4 m/S 745 mmHg 13%
21:00 +38°C° 0 mm 4 m/S 745 mmHg 14%
22:00 +37°C° 0 mm 4 m/S 746 mmHg 15%
23:00 +37°C° 0 mm 4 m/S 746 mmHg 17%

28 Juni, Montag

Zeit Temperatur Niederschläge Wind Luftdruck Luftfeuchtigkeit
00:00 +36°C° 0 mm 4 m/S 746 mmHg 18%
01:00 +35°C° 0 mm 4 m/S 746 mmHg 19%
02:00 +35°C° 0 mm 3 m/S 746 mmHg 20%
03:00 +34°C° 0 mm 3 m/S 746 mmHg 21%
04:00 +34°C° 0 mm 3 m/S 746 mmHg 22%
05:00 +33°C° 0 mm 3 m/S 746 mmHg 24%
06:00 +35°C° 0 mm 3 m/S 746 mmHg 22%
07:00 +37°C° 0 mm 3 m/S 747 mmHg 21%
08:00 +38°C° 0 mm 3 m/S 747 mmHg 19%
09:00 +40°C° 0 mm 3 m/S 747 mmHg 17%
10:00 +43°C° 0 mm 3 m/S 747 mmHg 14%
11:00 +45°C° 0 mm 3 m/S 747 mmHg 12%
12:00 +47°C° 0 mm 4 m/S 746 mmHg 11%
13:00 +48°C° 0 mm 5 m/S 746 mmHg 10%
14:00 +49°C° 0 mm 5 m/S 745 mmHg 9%
15:00 +48°C° 0 mm 6 m/S 745 mmHg 9%
16:00 +48°C° 0 mm 6 m/S 745 mmHg 9%
17:00 +48°C° 0 mm 6 m/S 745 mmHg 9%
18:00 +46°C° 0 mm 6 m/S 745 mmHg 10%
19:00 +43°C° 0 mm 5 m/S 746 mmHg 12%
20:00 +41°C° 0 mm 5 m/S 746 mmHg 13%
21:00 +41°C° 0 mm 5 m/S 746 mmHg 14%
22:00 +40°C° 0 mm 5 m/S 746 mmHg 16%
23:00 +38°C° 0 mm 4 m/S 747 mmHg 17%

29 Juni, Dienstag

Zeit Temperatur Niederschläge Wind Luftdruck Luftfeuchtigkeit
00:00 +37°C° 0 mm 5 m/S 746 mmHg 18%
01:00 +38°C° 0 mm 6 m/S 746 mmHg 19%
02:00 +36°C° 0 mm 6 m/S 746 mmHg 20%
03:00 +35°C° 0 mm 6 m/S 746 mmHg 24%
04:00 +34°C° 0 mm 5 m/S 747 mmHg 28%
05:00 +33°C° 0 mm 5 m/S 747 mmHg 32%
06:00 +35°C° 0 mm 5 m/S 747 mmHg 29%
07:00 +36°C° 0 mm 6 m/S 747 mmHg 27%
08:00 +39°C° 0 mm 6 m/S 747 mmHg 24%
09:00 +41°C° 0 mm 6 m/S 747 mmHg 21%
10:00 +44°C° 0 mm 6 m/S 747 mmHg 17%
11:00 +46°C° 0 mm 5 m/S 747 mmHg 14%
12:00 +47°C° 0 mm 5 m/S 746 mmHg 13%
13:00 +48°C° 0 mm 5 m/S 746 mmHg 11%
14:00 +49°C° 0 mm 5 m/S 745 mmHg 10%
15:00 +48°C° 0 mm 6 m/S 745 mmHg 10%
16:00 +49°C° 0 mm 7 m/S 745 mmHg 10%
17:00 +47°C° 0 mm 7 m/S 745 mmHg 10%
18:00 +46°C° 0 mm 7 m/S 745 mmHg 10%
19:00 +44°C° 0 mm 7 m/S 746 mmHg 10%
20:00 +41°C° 0 mm 7 m/S 746 mmHg 10%
21:00 +40°C° 0 mm 6 m/S 746 mmHg 11%
22:00 +39°C° 0 mm 5 m/S 747 mmHg 12%
23:00 +37°C° 0 mm 5 m/S 747 mmHg 13%

30 Juni, Mittwoch

Zeit Temperatur Niederschläge Wind Luftdruck Luftfeuchtigkeit
00:00 +36°C° 0 mm 5 m/S 747 mmHg 17%
01:00 +35°C° 0 mm 6 m/S 747 mmHg 22%
02:00 +34°C° 0 mm 7 m/S 747 mmHg 26%
03:00 +33°C° 0 mm 6 m/S 747 mmHg 29%
04:00 +32°C° 0 mm 6 m/S 747 mmHg 32%
05:00 +32°C° 0 mm 5 m/S 747 mmHg 35%
06:00 +33°C° 0 mm 6 m/S 747 mmHg 32%
07:00 +34°C° 0 mm 6 m/S 748 mmHg 29%
08:00 +36°C° 0 mm 6 m/S 748 mmHg 27%
09:00 +39°C° 0 mm 6 m/S 747 mmHg 22%
10:00 +41°C° 0 mm 6 m/S 747 mmHg 17%
11:00 +44°C° 0 mm 6 m/S 747 mmHg 12%
12:00 +44°C° 0 mm 6 m/S 746 mmHg 11%
13:00 +45°C° 0 mm 6 m/S 746 mmHg 9%
14:00 +46°C° 0 mm 6 m/S 745 mmHg 7%
15:00 +46°C° 0 mm 6 m/S 745 mmHg 7%
16:00 +46°C° 0 mm 6 m/S 745 mmHg 7%
17:00 +45°C° 0 mm 6 m/S 745 mmHg 8%
18:00 +42°C° 0 mm 5 m/S 746 mmHg 9%
19:00 +40°C° 0 mm 5 m/S 746 mmHg 11%
20:00 +38°C° 0 mm 4 m/S 746 mmHg 13%
21:00 +37°C° 0 mm 4 m/S 746 mmHg 15%
22:00 +36°C° 0 mm 4 m/S 747 mmHg 16%
23:00 +35°C° 0 mm 4 m/S 747 mmHg 18%
Mehr zeigen

Wir brauchen deine Erlaubnis

Meteoprog und unser Service Anbieter werden persönliche Daten aufbewahren, so wie Cookies, Geräte Bezeichnung oder ähnliche Technologien von deinem Gerät und Prozess, so wie Persönliche Daten Inhalte und Werbungen, genauso wie social Media und den Verkehr zu analysieren.

  • Aufbewahrung und/oder Zugang zu deiner Geräte Informationen.

    Cookies, Geräte Bezeichnung oder andere Informationen, können aufbewahrt oder Zugang zu deinem Gerät erhalten, für den Grund, der oben angegeben wird.

  • Personalisierte Werbung und Inhalte, Messungen, Einblick in das Publikum und Produkt Entwicklung.

    Werbungen und Inhalte können personalisiert werden, basierend auf ein Profil. Mehr Daten können besser personalisierte Werbungen und Inhalte hinzufügen. Werbung und Inhalte können gezeigt und gemessen werden. Einblicke über das Publikum, welche die Werbung gesehen haben und den Inhalt, können abgeleitet werden. So wie Daten können genutzt werden, um es zu verbessern oder die Benutzer Erfahrung zu verbessern das System und die Software.

Wenn du “Ich stimme zu” klickst, erlaubst du uns, die Cookies zu benutzen die Geräte Bezeichnung, den Web oder ähnliche Technologien zu benutzen. Deine Settings, können in deinem Gerät bei deinem Browser geändert werden.

Für den bestimmten Zweck, berechtigten Interessen beruhen darauf, mehr als auf den Inhalt. Du kannst mehr darüber in unseren Privaten und Cookie Politik lesen.